Regional Weather Roundup
Issued by NWS

Home | Current Version | Previous Version | Graphics & Text | Print | Product List | Glossary On
Versions: 1 2 3 4 5 6 7 8 9 10 11 12 13 14 15 16 17 18 19 20 21 22 23 24 25 26 27 28 29 30 31 32 33 34 35 36 37 38 39 40 41 42 43 44 45 46 47 48 49 50
000
ASUS43 KBIS 181710
RWRND

NORTH DAKOTA REGIONAL WEATHER ROUNDUP
NATIONAL WEATHER SERVICE BISMARCK ND
1200 PM CDT SAT APR 18 2015

NOTE: "FAIR" INDICATES FEW OR NO CLOUDS BELOW 12,000 FEET WITH NO
SIGNIFICANT WEATHER AND/OR OBSTRUCTIONS TO VISIBILITY.


NDZ001>003-009>011-017-181800-
NORTHWEST NORTH DAKOTA

CITY           SKY/WX    TMP DP  RH WIND       PRES   REMARKS
WILLISTON      SUNNY     67  37  33 S16       29.91F
MINOT          SUNNY     64  25  22 S9        29.95F
MINOT AFB      SUNNY     63  28  26 S13       29.95F
$$

NDZ018>021-031>035-040>046-181800-
SOUTHWEST NORTH DAKOTA

CITY           SKY/WX    TMP DP  RH WIND       PRES   REMARKS
BISMARCK       CLOUDY    53  30  41 CALM      30.01F
DICKINSON      SUNNY     66  32  28 SW15      29.94F
GARRISON         N/A     60  29  30 SE8       29.96F
HETTINGER ARPT CLOUDY    52  40  63 CALM      29.99F
$$

NDZ004>008-012>016-024-026-027-054-181800-
NORTHEAST NORTH DAKOTA

CITY           SKY/WX    TMP DP  RH WIND       PRES   REMARKS
GRAND FORKS    MOSUNNY   60  31  33 S7        30.05F
GRND FRKS AFB  SUNNY     59  30  34 SE9       30.05F
DEVILS LAKE    SUNNY     57  34  41 SE10      30.01F
$$

NDZ022-023-025-028>030-036>039-047>053-181800-
SOUTHEAST NORTH DAKOTA

CITY           SKY/WX    TMP DP  RH WIND       PRES   REMARKS
FARGO          MOSUNNY   66  29  24 SE13      30.03F
JAMESTOWN      PTSUNNY   57  27  31 SE9       30.01F
$$



USA.gov is the U.S. government's official web portal to all federal, state and local government web resources and services.